FW1568 Weather Reports


time (UTC)temp
C
wind
direction
speed
KPH
gust
KPH
rain 1hr
cm
rain 24hr
cm
rain mn
cm
humidity
%
barometer
mb
20260508043019 9 224 0.0 0.0 0.00 2.13 0.00 92 1001.7
20260508041516 9 224 0.0 0.0 0.00 2.13 0.00 92 1001.8
20260508040014 9 224 0.0 0.0 0.00 2.13 0.00 92 1001.9
20260508034509 9 224 0.0 1.6 0.00 2.13 0.00 92 1002.1
20260508033006 9 224 0.0 3.2 0.00 2.13 0.00 92 1002.2
20260508031600 9 224 1.6 4.8 0.00 2.13 0.00 92 1002.2
20260508024600 9 223 0.0 4.8 0.00 2.13 2.13 92 1002.2
20260508023056 9 223 0.0 8.0 0.00 2.13 2.13 92 1001.8
20260508021555 9 222 0.0 6.4 0.00 2.13 2.13 92 1001.9
20260508020055 9 223 1.6 6.4 0.00 2.13 2.13 92 1002.1
20260508014554 9 223 1.6 9.7 0.00 2.13 2.13 92 1002.2
20260508013053 9 244 1.6 8.0 0.00 2.13 2.13 92 1001.9
20260508011555 8 214 1.6 8.0 0.00 2.13 2.13 92 1002.1
20260508010051 8 183 3.2 12.9 0.00 2.13 2.13 91 1002.2
20260508004554 9 184 4.8 9.7 0.00 2.13 2.13 91 1002.4
20260508003050 9 183 1.6 8.0 0.00 2.13 2.13 91 1002.4
20260508001549 9 178 4.8 12.9 0.00 2.13 2.13 91 1002.6
20260508000048 9 168 4.8 11.3 0.00 2.13 2.13 91 1002.8
20260507234558 9 168 4.8 12.9 0.00 2.13 2.13 91 1002.3
20260507233047 9 179 8.0 16.1 0.00 2.13 2.13 91 1002.8
20260507231550 9 158 4.8 11.3 0.00 2.13 2.13 91 1002.9
20260507230050 9 217 4.8 11.3 0.00 2.13 2.13 91 1002.9
20260507224549 9 182 1.6 8.0 0.00 2.13 2.13 91 1003.0
20260507223051 9 217 4.8 12.9 0.00 2.13 2.13 91 1003.2
20260507221548 9 198 8.0 22.5 0.00 2.13 2.13 91 1003.2
20260507220044 10 183 8.0 24.1 0.00 2.13 2.13 91 1003.0
20260507214542 9 164 6.4 27.4 0.08 2.13 2.13 91 1002.6
20260507213041 9 177 11.3 24.1 0.23 2.13 2.13 91 1002.5
20260507211538 9 191 11.3 25.7 0.51 2.13 2.13 90 1002.1
20260507210034 9 185 6.4 20.9 0.71 2.13 2.13 90 1003.3
20260507204531 10 144 9.7 24.1 0.94 2.06 2.06 90 1003.7
20260507203028 10 112 8.0 22.5 1.09 1.91 1.91 90 1004.2
20260507201625 10 193 8.0 30.6 1.04 1.65 1.65 90 1004.9
20260507200034 10 202 4.8 19.3 0.91 1.40 1.40 90 1005.4
20260507194524 10 131 8.0 27.4 0.79 1.09 1.09 90 1004.8
20260507193021 10 201 12.9 35.4 0.58 0.79 0.79 90 1005.1
20260507191518 11 154 12.9 32.2 0.43 0.61 0.61 89 1005.4
20260507190019 11 195 8.0 30.6 0.33 0.48 0.48 89 1005.9
20260507184516 11 182 11.3 25.7 0.15 0.33 0.33 89 1006.1
20260507183030 11 179 11.3 25.7 0.05 0.23 0.23 88 1006.1
20260507181514 11 195 9.7 30.6 0.03 0.18 0.18 87 1005.8
20260507180022 11 183 12.9 32.2 0.00 0.15 0.15 86 1005.7
20260507174512 12 142 12.9 22.5 0.00 0.15 0.15 85 1006.0
20260507173011 12 182 11.3 33.8 0.00 0.15 0.15 85 1006.3
20260507171509 12 42 16.1 30.6 0.00 0.15 0.15 85 1006.2
20260507170007 12 180 12.9 33.8 0.00 0.15 0.15 86 1006.6
20260507164506 12 169 14.5 38.6 0.00 0.15 0.15 85 1006.9
20260507163003 12 167 20.9 35.4 0.00 0.15 0.15 85 1007.4
20260507161501 12 205 11.3 33.8 0.00 0.15 0.15 85 1007.9
20260507154558 12 183 12.9 40.2 0.00 0.15 0.15 87 1008.3
20260507153057 12 201 17.7 33.8 0.03 0.15 0.15 87 1008.7
20260507151555 12 204 16.1 38.6 0.03 0.15 0.15 87 1009.3
20260507150059 12 206 16.1 32.2 0.03 0.15 0.15 88 1009.4
20260507144552 12 221 17.7 38.6 0.03 0.15 0.15 88 1009.7
20260507143054 12 184 17.7 30.6 0.00 0.15 0.15 88 1010.2
20260507141553 12 174 20.9 35.4 0.00 0.15 0.15 87 1010.7
20260507140049 12 192 12.9 32.2 0.00 0.15 0.15 87 1010.7
20260507134554 12 185 11.3 37.0 0.00 0.15 0.15 87 1010.6
20260507133047 12 204 16.1 33.8 0.00 0.15 0.15 87 1010.7
20260507131545 12 173 17.7 41.8 0.00 0.15 0.15 88 1010.4
20260507130044 11 148 11.3 40.2 0.00 0.15 0.15 89 1010.5
20260507124541 11 162 14.5 40.2 0.00 0.15 0.15 90 1010.1
20260507123039 11 198 12.9 27.4 0.00 0.15 0.15 89 1010.8
20260507121535 11 183 16.1 37.0 0.00 0.15 0.15 89 1011.8
20260507120033 11 144 19.3 33.8 0.00 0.15 0.15 89 1011.9
20260507114535 11 195 12.9 24.1 0.00 0.15 0.15 90 1012.6
20260507113031 11 146 9.7 40.2 0.00 0.15 0.15 90 1012.4
20260507111530 11 187 16.1 35.4 0.00 0.15 0.15 90 1012.2
20260507110030 10 129 9.7 30.6 0.00 0.15 0.15 90 1012.5
20260507104526 10 185 14.5 37.0 0.00 0.15 0.15 90 1012.6
20260507103028 10 155 9.7 32.2 0.00 0.15 0.15 91 1013.4
20260507101522 10 185 9.7 25.7 0.00 0.15 0.15 90 1012.9
20260507100021 10 185 6.4 29.0 0.00 0.15 0.15 90 1013.5
20260507094518 10 166 11.3 25.7 0.03 0.15 0.15 90 1013.0
20260507093017 10 182 17.7 32.2 0.05 0.15 0.15 90 1013.4
20260507091514 10 167 9.7 24.1 0.05 0.15 0.15 90 1013.5
20260507090013 10 192 8.0 24.1 0.08 0.15 0.15 90 1013.5
20260507084521 11 177 12.9 27.4 0.10 0.13 0.13 90 1013.6
20260507083009 11 181 12.9 24.1 0.08 0.10 0.10 90 1013.5
20260507081512 11 170 12.9 25.7 0.08 0.08 0.08 90 1013.7
20260507080004 10 180 11.3 27.4 0.05 0.05 0.05 89 1014.0
20260507074505 10 152 4.8 19.3 0.03 0.03 0.03 89 1014.3
20260507073101 10 174 9.7 20.9 0.03 0.03 0.03 89 1014.5
20260507071600 11 178 11.3 17.7 0.00 0.00 0.00 89 1014.4
20260507064552 11 191 11.3 24.1 0.00 0.00 0.00 89 1015.0
20260507063052 11 194 6.4 12.9 0.00 0.00 0.00 89 1015.0
20260507061544 11 208 1.6 11.3 0.00 0.00 0.00 89 1015.3
20260507060101 11 235 4.8 17.7 0.00 0.00 0.00 89 1015.5
20260507054559 11 190 4.8 14.5 0.00 0.00 0.00 89 1015.6
20260507053056 11 181 4.8 11.3 0.00 0.00 0.00 89 1015.8
20260507051555 11 192 4.8 14.5 0.00 0.00 0.00 89 1016.3
20260507050051 11 208 3.2 12.9 0.00 0.00 0.00 89 1016.8
20260507044549 11 198 3.2 9.7 0.00 0.00 0.00 89 1016.8